Wind_Speed
36 36 35 35 35 35 34 32 30 28 27 27 27 26 25 25 24 23 22 22 21 21 22 22 22 22 21 20 20 20 19 18 18 17 16 15 15 14 14 13 12 11 10 10 9 9 9 9 9
36 37 37 37 37 36 35 33 30 29 29 28 28 27 27 26 26 25 23 23 22 22 22 23 23 23 23 23 22 22 21 20 20 20 19 18 17 16 16 15 14 13 12 12 11 11 11 10 10
37 37 38 38 38 36 35 33 31 30 30 29 29 28 28 27 26 25 25 24 23 23 23 24 24 24 25 25 25 24 24 23 23 22 21 21 20 19 18 18 17 16 15 15 14 13 13 12 12
37 38 39 39 38 36 35 34 32 31 31 30 30 30 29 28 27 26 26 26 25 25 25 25 25 25 25 25 26 26 26 26 25 25 24 23 23 22 21 20 19 19 18 17 16 16 15 14 14
38 39 39 38 37 37 36 34 33 32 31 31 31 30 29 28 28 27 26 26 27 26 26 26 26 26 26 26 26 27 27 27 27 27 26 25 24 23 23 23 22 21 20 20 19 18 17 17 16
37 38 38 37 37 36 35 34 33 32 31 31 31 31 30 29 28 28 27 27 27 28 28 28 28 28 28 28 27 27 27 27 27 28 28 27 27 25 25 25 24 23 23 22 21 20 20 19 18
36 37 37 37 36 36 35 34 33 33 32 31 31 31 31 30 30 29 29 29 29 29 29 29 29 29 29 29 29 28 28 28 28 28 29 29 29 28 27 27 26 26 25 24 23 23 22 21 21
36 36 37 36 36 36 35 34 33 33 32 32 32 32 31 31 31 31 30 30 30 30 29 30 30 30 30 30 30 31 30 30 30 30 30 30 30 30 30 29 28 28 27 26 25 25 24 23 23
35 36 36 36 36 35 35 34 33 33 32 32 32 32 31 31 31 31 31 31 31 31 30 30 31 31 31 31 31 32 32 32 32 32 31 32 32 32 31 31 30 29 28 28 27 27 26 26 25
34 35 35 35 36 35 34 34 33 33 32 32 32 32 32 32 32 32 32 32 32 32 32 31 32 32 33 33 33 33 33 33 34 34 34 33 33 33 33 32 31 31 30 30 29 28 28 27 27
32 33 34 34 34 34 33 33 32 32 32 32 32 31 31 32 32 32 32 32 33 33 33 33 34 34 34 35 35 35 34 34 34 34 35 35 34 34 34 34 33 33 32 32 31 31 30 29 28
30 31 33 33 33 33 32 32 31 31 31 31 31 31 32 32 32 32 33 33 33 33 34 34 35 35 35 35 35 36 36 35 35 35 35 36 36 36 36 35 35 34 33 33 32 32 32 31 30
28 29 30 31 32 32 32 31 31 30 30 30 31 31 31 31 31 31 32 32 33 33 34 34 34 34 34 34 34 35 36 36 36 37 37 37 38 38 38 38 37 37 36 35 34 34 33 33 33
26 28 28 29 30 30 31 31 30 30 30 30 30 30 30 30 30 30 31 31 31 32 32 33 33 33 34 34 35 35 37 38 38 37 37 38 38 39 39 39 39 39 38 37 37 36 36 35 35
24 26 27 28 28 28 29 29 29 29 29 29 29 29 28 29 29 29 29 30 30 31 32 32 32 33 34 34 35 36 37 38 39 39 38 38 39 40 41 41 41 41 40 40 39 38 38 37 37
23 24 25 26 26 26 27 26 27 27 28 28 28 28 28 28 28 29 29 29 29 30 31 32 32 33 34 35 36 37 38 38 40 40 40 40 40 40 41 42 42 42 42 42 41 40 40 40 41
22 21 22 23 23 24 24 23 25 25 26 27 27 27 28 28 29 29 29 29 29 30 30 31 32 34 35 36 37 38 38 39 40 40 41 41 41 41 42 43 43 44 44 44 44 43 42 42 42
18 19 20 20 21 22 22 22 23 24 25 25 26 26 27 28 28 28 28 29 29 30 31 31 32 33 34 36 36 37 38 39 39 40 41 41 42 43 43 44 45 45 46 47 47 46 45 44 43
16 17 18 19 20 21 22 22 23 24 24 25 25 25 25 26 27 28 28 29 29 30 31 31 32 32 33 34 35 37 38 39 40 41 42 43 43 44 45 45 46 47 48 48 48 48 48 47 47
15 16 17 19 20 21 22 22 23 24 24 24 25 25 25 26 26 26 28 28 29 30 31 32 32 32 33 33 35 36 38 39 40 40 41 43 44 45 45 46 47 47 48 49 50 50 49 49 48
14 15 16 17 19 20 21 22 22 23 23 23 24 25 25 25 25 26 28 29 29 30 31 32 32 32 33 33 34 35 36 38 40 40 41 42 43 44 45 46 47 47 47 48 49 50 49 49 48
13 14 15 16 18 19 20 21 22 22 23 23 24 24 25 25 26 27 28 28 29 30 31 31 32 33 34 33 33 34 35 37 38 40 41 42 42 43 43 44 45 46 46 47 48 49 50 50 49
12 13 14 15 16 18 20 21 21 22 23 24 24 25 25 26 26 27 28 28 29 29 30 31 32 33 33 34 34 35 35 36 37 38 39 41 42 42 43 43 44 45 45 45 46 47 48 49 49
11 12 13 14 15 17 18 20 21 21 22 23 24 25 26 27 27 27 27 28 29 29 30 30 31 32 33 33 34 34 35 35 35 36 38 39 39 40 40 41 42 43 44 44 45 46 47 47 48
11 12 13 14 15 16 16 18 19 20 21 23 24 25 26 27 28 28 28 28 29 29 29 30 30 31 32 33 34 34 34 34 35 36 36 37 37 39 40 40 40 41 41 42 44 45 46 47 48
10 12 13 14 15 15 16 17 19 20 20 21 23 24 25 26 27 27 28 28 29 29 29 29 30 31 32 32 33 34 34 34 34 35 35 36 36 37 39 40 40 40 40 41 43 44 45 47 49
10 11 13 14 15 16 16 17 18 18 19 19 20 22 23 25 26 27 28 29 29 30 30 30 31 31 31 32 32 33 34 34 34 34 34 35 35 37 38 39 40 40 41 41 42 43 44 45 47
11 12 12 13 15 16 16 16 17 17 18 19 20 21 22 23 25 26 27 28 29 30 31 31 31 31 31 31 31 31 31 32 32 33 33 34 35 36 37 38 39 41 41 42 42 43 44 45 45
11 12 13 14 15 16 16 15 16 17 18 19 20 22 23 24 24 24 25 26 27 28 29 29 29 29 30 30 30 30 30 30 30 31 32 33 33 34 35 35 36 38 39 41 41 42 43 44 46
12 13 14 16 16 17 17 15 17 18 19 20 21 22 22 23 24 25 26 27 27 28 28 28 28 28 29 29 29 30 30 29 30 30 31 31 32 32 32 33 34 35 36 38 40 40 42 43 44
Wind_Direction
235 235 234 234 234 235 237 237 238 238 239 240 242 244 245 245 245 248 250 249 249 249 249 249 249 249 249 248 248 247 247 247 247 247 246 246 245 241 239 238 237 237 237 238 240 239 238 241 244
235 235 234 234 235 237 237 238 238 239 239 240 242 243 244 245 246 248 249 249 249 249 249 250 250 250 250 250 250 250 248 248 248 247 247 247 246 244 241 240 240 241 241 241 243 244 242 243 246
234 234 234 235 236 237 239 239 238 239 240 240 242 243 244 245 246 247 248 249 249 249 249 250 250 251 251 252 251 252 251 250 250 249 248 248 248 247 244 243 244 244 244 244 245 247 247 246 248
234 234 235 235 236 237 239 239 240 240 240 240 241 243 244 246 246 247 247 247 248 248 249 250 251 252 253 253 252 252 252 251 251 250 249 249 249 249 247 245 245 245 245 245 246 247 249 250 250
233 233 234 235 235 236 238 239 239 239 240 240 241 242 244 245 246 246 247 247 248 248 249 251 252 253 254 254 254 253 254 253 251 250 250 250 249 248 247 247 246 247 247 247 247 248 249 251 251
232 231 233 234 235 236 237 238 239 239 239 240 240 241 242 244 245 247 247 248 249 249 250 251 252 253 254 254 255 254 254 254 253 251 251 251 251 250 249 248 247 246 247 247 248 248 249 250 251
233 232 232 233 234 235 236 237 237 238 239 239 240 241 242 243 245 247 249 251 251 252 252 252 253 253 254 254 255 255 255 254 254 253 252 252 252 251 250 250 249 248 248 248 248 249 250 250 250
232 232 232 232 233 234 235 236 238 238 239 240 240 241 243 244 246 248 250 251 252 252 252 252 253 253 254 256 255 255 255 254 254 255 254 253 253 253 251 250 250 249 248 248 248 249 250 250 251
232 232 232 232 233 234 235 237 238 239 240 241 241 243 245 245 247 248 250 251 252 252 252 253 254 254 255 256 256 256 255 255 255 254 255 253 252 252 251 251 250 249 248 248 248 249 250 250 251
231 231 231 231 232 233 234 236 238 240 241 242 243 244 245 246 247 248 250 250 251 252 252 254 255 256 255 256 256 256 257 256 256 255 255 254 252 251 251 251 250 249 248 248 248 248 249 250 251
230 231 231 232 232 233 234 236 237 240 241 242 244 244 245 247 248 249 250 250 251 252 253 254 256 257 257 256 256 256 256 256 256 256 255 254 253 251 251 251 250 250 249 249 249 248 249 250 250
230 230 231 232 232 233 234 235 237 239 240 241 243 243 244 246 247 248 250 251 252 253 254 256 256 256 257 257 256 255 255 256 256 256 256 254 253 252 251 250 250 250 249 249 250 250 249 250 251
230 230 231 232 232 234 234 235 238 240 241 242 243 244 244 245 246 248 250 252 253 254 254 255 255 255 255 255 255 255 255 256 257 257 257 255 253 252 252 250 250 249 250 250 250 250 250 251 251
229 229 229 232 233 234 235 237 238 241 241 242 242 243 243 244 246 248 250 252 253 253 254 255 255 255 255 255 255 256 256 256 257 257 257 256 253 252 252 252 251 250 251 251 250 251 251 250 251
228 229 229 231 233 234 236 237 238 239 240 240 240 241 243 245 247 249 251 252 253 254 255 256 257 257 257 257 257 258 258 258 257 257 257 257 255 254 253 253 253 251 252 252 252 250 250 251 251
226 227 229 229 231 233 234 234 235 236 237 238 239 242 244 245 247 250 252 253 254 255 257 258 260 260 261 260 260 260 260 259 257 257 257 256 256 255 254 254 253 252 252 252 252 251 251 251 251
224 226 227 228 229 231 232 234 233 234 237 239 241 244 245 248 249 251 252 253 255 257 259 260 263 264 263 263 262 262 262 260 258 257 257 255 255 255 255 254 254 254 252 252 252 252 252 253 253
221 225 224 226 227 229 233 235 237 238 238 241 243 245 246 249 251 252 253 255 258 260 262 264 265 266 266 265 264 263 262 261 259 258 257 256 256 256 256 255 254 254 253 252 252 251 252 253 254
220 224 225 227 228 232 234 236 239 241 242 244 245 246 248 250 253 254 256 258 260 262 263 266 268 268 267 265 265 264 263 262 261 260 259 257 257 257 257 256 255 254 253 252 251 251 251 252 254
223 225 227 228 231 234 235 238 241 242 244 246 246 247 248 252 255 257 259 260 262 264 265 266 269 270 271 269 268 267 265 263 261 261 260 259 258 258 258 257 255 255 254 252 251 250 250 251 253
228 229 231 233 233 234 238 240 242 243 244 245 247 249 251 254 257 260 262 263 264 266 268 269 270 271 272 271 269 268 268 266 264 262 261 260 260 259 259 258 257 256 254 253 251 250 250 251 252
232 232 235 238 238 239 240 243 242 244 245 248 249 252 255 258 261 263 265 267 268 269 271 272 272 272 272 272 271 270 269 268 267 265 263 261 260 259 260 258 257 256 255 254 252 251 251 251 252
237 237 241 244 246 245 245 247 245 246 248 250 253 255 257 260 262 265 266 268 270 272 273 274 275 275 275 273 273 273 272 271 270 268 266 263 261 260 260 259 257 256 256 256 254 252 252 251 251
240 245 247 249 250 250 251 251 250 250 253 255 258 259 260 261 264 266 268 270 272 274 275 276 276 277 276 275 273 273 273 273 272 270 268 265 262 260 259 258 257 256 256 256 255 252 251 251 251
247 250 254 255 254 255 256 257 256 256 258 260 262 263 263 264 265 268 270 271 273 276 278 279 279 278 277 276 274 273 272 273 273 271 269 267 264 261 259 258 257 256 257 255 254 252 251 251 252
256 255 258 261 261 262 262 263 264 262 261 262 263 265 266 267 268 269 271 273 274 277 279 280 281 281 280 278 275 273 273 274 274 272 269 268 266 264 261 258 256 256 256 256 255 254 253 253 253
265 262 262 265 267 267 267 269 267 264 263 263 264 266 268 269 270 272 273 275 277 279 281 282 282 283 282 280 278 277 276 276 275 272 271 269 268 267 264 260 258 256 256 255 256 256 255 254 253
272 271 271 271 275 275 273 272 270 268 266 266 267 269 270 272 273 275 276 277 279 281 282 283 284 284 284 283 281 280 280 279 276 273 272 271 271 268 266 263 261 259 258 258 257 256 256 255 255
275 275 273 276 278 280 279 277 277 274 271 270 271 272 273 275 276 278 279 280 281 282 284 284 284 285 285 285 283 281 282 281 279 276 274 274 272 270 267 265 262 262 260 259 258 257 257 256 255
276 275 276 278 279 279 280 283 281 280 278 277 275 275 276 277 278 279 280 281 282 283 284 284 284 285 286 286 284 282 283 283 282 280 276 274 273 271 268 266 264 263 261 260 259 258 258 257 256
Height
5812 5816 5819 5821 5824 5826 5829 5833 5836 5839 5840 5842 5843 5844 5846 5848 5850 5853 5853 5853 5854 5855 5856 5857 5858 5859 5861 5862 5863 5864 5865 5866 5866 5867 5868 5868 5869 5869 5870 5870 5871 5871 5871 5871 5872 5872 5872 5872 5873
5805 5808 5811 5814 5817 5820 5824 5827 5831 5833 5835 5836 5838 5840 5841 5843 5845 5846 5847 5848 5850 5851 5852 5853 5854 5855 5856 5858 5859 5860 5861 5862 5863 5864 5864 5865 5866 5867 5867 5868 5868 5868 5869 5869 5869 5870 5870 5870 5871
5796 5800 5804 5807 5810 5815 5818 5821 5825 5827 5829 5831 5833 5834 5836 5838 5840 5841 5842 5844 5845 5846 5847 5848 5850 5851 5852 5853 5855 5856 5857 5858 5859 5860 5861 5862 5862 5863 5864 5865 5865 5866 5866 5867 5867 5867 5868 5868 5868
5788 5792 5796 5800 5804 5809 5812 5815 5818 5821 5823 5825 5827 5829 5831 5833 5835 5836 5837 5839 5840 5841 5843 5844 5845 5846 5847 5848 5850 5851 5852 5853 5854 5855 5856 5857 5858 5859 5860 5861 5862 5862 5863 5863 5864 5864 5865 5865 5866
5779 5784 5788 5793 5798 5801 5805 5808 5811 5814 5817 5819 5821 5823 5825 5827 5829 5830 5832 5833 5835 5836 5837 5839 5840 5841 5842 5843 5844 5846 5847 5848 5849 5850 5852 5853 5854 5855 5856 5857 5858 5859 5859 5860 5861 5861 5862 5862 5863
5772 5776 5782 5786 5791 5794 5798 5802 5805 5808 5810 5813 5815 5817 5819 5821 5823 5825 5826 5828 5829 5831 5832 5833 5834 5835 5837 5838 5839 5840 5841 5843 5844 5845 5846 5847 5849 5850 5851 5852 5853 5854 5855 5856 5857 5857 5858 5858 5859
5766 5770 5775 5780 5783 5787 5791 5795 5798 5801 5804 5806 5809 5811 5813 5815 5817 5819 5821 5822 5823 5825 5826 5827 5828 5830 5831 5832 5833 5834 5836 5837 5838 5839 5841 5842 5843 5845 5846 5847 5848 5849 5851 5851 5852 5853 5854 5854 5855
5759 5764 5768 5772 5776 5780 5784 5788 5791 5794 5797 5800 5802 5805 5807 5810 5811 5813 5815 5816 5817 5819 5820 5821 5822 5823 5825 5826 5827 5828 5830 5831 5832 5833 5835 5836 5837 5839 5840 5841 5843 5844 5845 5846 5847 5848 5849 5850 5850
5752 5757 5761 5765 5769 5774 5777 5781 5785 5787 5790 5793 5796 5799 5801 5803 5805 5806 5808 5809 5811 5812 5813 5815 5816 5817 5818 5819 5820 5821 5823 5824 5825 5827 5828 5829 5831 5832 5834 5835 5837 5838 5839 5841 5842 5843 5844 5844 5845
5745 5749 5755 5758 5762 5766 5770 5774 5778 5781 5784 5786 5789 5792 5794 5796 5798 5800 5801 5803 5804 5805 5807 5808 5809 5810 5811 5812 5813 5814 5816 5817 5818 5820 5821 5822 5824 5825 5827 5828 5830 5832 5833 5835 5836 5837 5838 5839 5840
5739 5744 5748 5752 5756 5759 5763 5767 5771 5774 5777 5780 5783 5785 5787 5789 5791 5793 5794 5796 5797 5798 5799 5801 5802 5803 5804 5805 5806 5807 5808 5809 5811 5812 5813 5815 5816 5818 5820 5821 5823 5825 5827 5828 5830 5831 5832 5833 5834
5735 5738 5742 5746 5749 5753 5757 5761 5764 5767 5771 5773 5776 5778 5780 5782 5784 5786 5787 5788 5789 5791 5792 5793 5794 5795 5796 5797 5798 5799 5800 5802 5803 5804 5805 5807 5809 5810 5812 5814 5816 5818 5820 5821 5823 5824 5825 5827 5828
5730 5733 5737 5740 5744 5747 5751 5755 5758 5761 5764 5767 5769 5771 5773 5775 5777 5778 5780 5781 5782 5783 5784 5785 5786 5787 5788 5789 5790 5791 5792 5793 5795 5796 5797 5798 5800 5802 5804 5806 5808 5810 5812 5814 5816 5817 5819 5820 5821
5726 5729 5732 5736 5739 5742 5746 5749 5753 5756 5758 5761 5763 5765 5767 5768 5770 5771 5773 5774 5775 5776 5777 5777 5778 5779 5780 5781 5782 5782 5784 5785 5786 5788 5789 5790 5791 5794 5796 5798 5800 5802 5804 5806 5808 5810 5811 5812 5814
5722 5726 5729 5731 5734 5738 5741 5745 5747 5750 5752 5755 5757 5759 5761 5762 5764 5765 5766 5767 5768 5769 5769 5770 5771 5771 5772 5773 5773 5774 5775 5776 5777 5778 5780 5781 5783 5785 5786 5789 5791 5793 5795 5797 5799 5801 5803 5805 5806
5719 5722 5725 5728 5731 5734 5738 5740 5742 5744 5747 5749 5751 5753 5755 5756 5758 5759 5760 5761 5761 5762 5763 5763 5763 5764 5764 5764 5764 5765 5765 5766 5767 5769 5770 5772 5774 5775 5777 5779 5782 5784 5786 5788 5790 5792 5794 5796 5797
5716 5719 5722 5725 5727 5730 5733 5736 5738 5740 5742 5744 5746 5748 5749 5751 5752 5753 5753 5754 5755 5755 5756 5756 5756 5756 5755 5755 5755 5755 5756 5757 5758 5759 5761 5762 5764 5765 5767 5769 5772 5773 5776 5778 5781 5783 5785 5787 5788
5714 5717 5719 5722 5725 5727 5729 5732 5734 5735 5737 5739 5741 5742 5743 5745 5746 5746 5747 5748 5748 5748 5749 5749 5748 5748 5747 5747 5746 5747 5747 5747 5748 5749 5751 5752 5754 5755 5757 5759 5761 5763 5765 5768 5770 5772 5774 5777 5778
5712 5715 5717 5719 5721 5724 5726 5728 5730 5731 5733 5734 5735 5737 5738 5739 5740 5740 5740 5741 5741 5741 5742 5741 5741 5740 5739 5738 5738 5738 5738 5738 5739 5739 5740 5742 5743 5745 5747 5748 5750 5752 5754 5756 5759 5761 5764 5766 5768
5710 5712 5714 5716 5718 5720 5722 5724 5725 5727 5728 5729 5730 5731 5733 5733 5734 5734 5734 5734 5734 5734 5734 5734 5733 5732 5731 5730 5730 5729 5729 5729 5729 5730 5730 5731 5733 5734 5736 5737 5739 5740 5742 5745 5747 5750 5752 5755 5757
5708 5710 5712 5713 5715 5716 5718 5720 5721 5722 5723 5724 5725 5726 5727 5728 5728 5728 5728 5728 5728 5727 5727 5726 5725 5724 5723 5722 5722 5721 5720 5720 5720 5720 5720 5721 5722 5723 5725 5726 5728 5729 5731 5733 5736 5738 5741 5744 5746
5707 5708 5709 5711 5712 5713 5715 5716 5717 5718 5719 5719 5720 5721 5722 5722 5722 5722 5722 5721 5721 5720 5719 5718 5717 5716 5715 5714 5713 5712 5712 5712 5711 5711 5710 5710 5711 5712 5714 5715 5716 5718 5720 5722 5724 5727 5730 5732 5735
5704 5706 5707 5708 5709 5710 5711 5711 5713 5713 5714 5715 5715 5715 5716 5716 5716 5715 5715 5714 5714 5713 5712 5711 5710 5708 5707 5706 5705 5704 5704 5703 5702 5701 5701 5701 5701 5702 5703 5704 5706 5707 5709 5711 5713 5716 5718 5721 5724
5702 5704 5705 5705 5705 5707 5707 5708 5709 5709 5710 5710 5710 5709 5709 5709 5709 5709 5708 5708 5707 5706 5705 5703 5702 5700 5698 5697 5696 5695 5695 5694 5693 5692 5692 5691 5691 5692 5693 5694 5695 5697 5698 5700 5702 5705 5707 5710 5712
5700 5702 5702 5702 5702 5703 5703 5703 5704 5704 5704 5704 5704 5704 5703 5703 5703 5702 5702 5701 5700 5699 5697 5695 5694 5692 5690 5689 5688 5687 5686 5685 5684 5683 5683 5682 5682 5682 5683 5684 5685 5686 5688 5689 5691 5693 5696 5698 5700
5698 5699 5700 5699 5699 5699 5699 5699 5700 5699 5698 5698 5698 5697 5697 5696 5696 5695 5695 5694 5693 5691 5690 5688 5686 5684 5683 5681 5680 5679 5677 5676 5675 5674 5673 5673 5672 5672 5672 5673 5674 5675 5677 5678 5680 5682 5684 5686 5688
5695 5695 5696 5696 5695 5695 5695 5695 5695 5693 5693 5692 5692 5691 5691 5690 5689 5689 5688 5687 5686 5684 5683 5681 5679 5677 5675 5673 5672 5670 5669 5667 5666 5665 5664 5663 5662 5661 5661 5662 5663 5664 5665 5667 5668 5670 5672 5674 5676
5693 5692 5692 5692 5691 5690 5691 5690 5690 5688 5687 5687 5686 5685 5684 5684 5683 5682 5681 5680 5678 5677 5675 5673 5671 5669 5667 5666 5664 5662 5660 5659 5657 5656 5655 5654 5652 5651 5651 5651 5652 5653 5654 5656 5657 5659 5660 5662 5664
5690 5689 5688 5687 5687 5686 5685 5688 5685 5683 5682 5681 5680 5679 5678 5677 5676 5675 5674 5672 5671 5669 5668 5666 5664 5662 5660 5658 5656 5654 5653 5651 5649 5648 5647 5645 5644 5642 5642 5641 5642 5643 5643 5645 5646 5647 5648 5649 5651
5685 5685 5684 5684 5683 5681 5680 5684 5679 5678 5676 5675 5674 5673 5671 5670 5669 5667 5666 5665 5663 5662 5660 5658 5656 5654 5652 5650 5649 5647 5645 5643 5641 5639 5638 5636 5634 5633 5632 5632 5632 5633 5633 5634 5634 5635 5636 5637 5639